Year,Month,Day,Hour,Minute,Value (Times are PST for temperature in C)
2013,03,25,00,00,5.20
2013,03,25,00,01,5.20
2013,03,25,00,02,5.20
2013,03,25,00,03,5.20
2013,03,25,00,04,5.20
2013,03,25,00,05,5.20
2013,03,25,00,06,5.20
2013,03,25,00,07,5.20
2013,03,25,00,08,5.20
2013,03,25,00,09,5.20
2013,03,25,00,10,5.20
2013,03,25,00,11,5.20
2013,03,25,00,12,5.10
2013,03,25,00,13,5.10
2013,03,25,00,14,5.10
2013,03,25,00,15,5.10
2013,03,25,00,16,5.10
2013,03,25,00,17,5.10
2013,03,25,00,18,5.10
2013,03,25,00,19,5.10
2013,03,25,00,20,5.10
2013,03,25,00,21,5.10
2013,03,25,00,22,5.10
2013,03,25,00,23,5.10
2013,03,25,00,24,5.10
2013,03,25,00,25,5.10
2013,03,25,00,26,5.10
2013,03,25,00,27,5.10
2013,03,25,00,28,5.10
2013,03,25,00,29,5.10
2013,03,25,00,30,5.10
2013,03,25,00,31,5.10
2013,03,25,00,32,5.10
2013,03,25,00,33,5.10
2013,03,25,00,34,5.10
2013,03,25,00,35,5.10
2013,03,25,00,36,5.10
2013,03,25,00,37,5.10
2013,03,25,00,38,5.20
2013,03,25,00,39,5.20
2013,03,25,00,40,5.20
2013,03,25,00,41,5.30
2013,03,25,00,42,5.30
2013,03,25,00,43,5.30
2013,03,25,00,44,5.30
2013,03,25,00,45,5.30
2013,03,25,00,46,5.30
2013,03,25,00,47,5.30
2013,03,25,00,48,5.30
2013,03,25,00,49,5.30
2013,03,25,00,50,5.30
2013,03,25,00,51,5.30
2013,03,25,00,52,5.30
2013,03,25,00,53,5.30
2013,03,25,00,54,5.30
2013,03,25,00,55,5.30
2013,03,25,00,56,5.30
2013,03,25,00,57,5.30
2013,03,25,00,58,5.30
2013,03,25,00,59,5.30
2013,03,25,01,00,5.30
2013,03,25,01,01,5.20
2013,03,25,01,02,5.20
2013,03,25,01,03,5.20
2013,03,25,01,04,5.20
2013,03,25,01,05,5.20
2013,03,25,01,06,5.20
2013,03,25,01,07,5.20
2013,03,25,01,08,5.20
2013,03,25,01,09,5.10
2013,03,25,01,10,5.10
2013,03,25,01,11,5.10
2013,03,25,01,12,5.10
2013,03,25,01,13,5.10
2013,03,25,01,14,5.10
2013,03,25,01,15,5.10
2013,03,25,01,16,5.10
2013,03,25,01,17,5.10
2013,03,25,01,18,5.10
2013,03,25,01,19,5.10
2013,03,25,01,20,5.10
2013,03,25,01,21,5.10
2013,03,25,01,22,5.00
2013,03,25,01,23,4.90
2013,03,25,01,24,4.90
2013,03,25,01,25,4.90
2013,03,25,01,26,4.90
2013,03,25,01,27,4.90
2013,03,25,01,28,4.90
2013,03,25,01,29,4.90
2013,03,25,01,30,4.90
2013,03,25,01,31,4.80
2013,03,25,01,32,4.80
2013,03,25,01,33,4.80
2013,03,25,01,34,4.80
2013,03,25,01,35,4.80
2013,03,25,01,36,4.70
2013,03,25,01,37,4.70
2013,03,25,01,38,4.70
2013,03,25,01,39,4.70
2013,03,25,01,40,4.60
2013,03,25,01,41,4.60
2013,03,25,01,42,4.60
2013,03,25,01,43,4.60
2013,03,25,01,44,4.60
2013,03,25,01,45,4.60
2013,03,25,01,46,4.50
2013,03,25,01,47,4.50
2013,03,25,01,48,4.50
2013,03,25,01,49,4.50
2013,03,25,01,50,4.50
2013,03,25,01,51,4.50
2013,03,25,01,52,4.50
2013,03,25,01,53,4.50
2013,03,25,01,54,4.40
2013,03,25,01,55,4.40
2013,03,25,01,56,4.40
2013,03,25,01,57,4.40
2013,03,25,01,58,4.40
2013,03,25,01,59,4.40
2013,03,25,02,00,4.40
2013,03,25,02,01,4.40
2013,03,25,02,02,4.40
2013,03,25,02,03,4.40
2013,03,25,02,04,4.40
2013,03,25,02,05,4.30
2013,03,25,02,06,4.30
2013,03,25,02,07,4.30
2013,03,25,02,08,4.30
2013,03,25,02,09,4.30
2013,03,25,02,10,4.30
2013,03,25,02,11,4.30
2013,03,25,02,12,4.30
2013,03,25,02,13,4.20
2013,03,25,02,14,4.20
2013,03,25,02,15,4.20
2013,03,25,02,16,4.20
2013,03,25,02,17,4.20
2013,03,25,02,18,4.20
2013,03,25,02,19,4.20
2013,03,25,02,20,4.20
2013,03,25,02,21,4.20
2013,03,25,02,22,4.20
2013,03,25,02,23,4.20
2013,03,25,02,24,4.20
2013,03,25,02,25,4.20
2013,03,25,02,26,4.20
2013,03,25,02,27,4.20
2013,03,25,02,28,4.10
2013,03,25,02,29,4.10
2013,03,25,02,30,4.10
2013,03,25,02,31,4.10
2013,03,25,02,32,4.10
2013,03,25,02,33,4.10
2013,03,25,02,34,4.00
2013,03,25,02,35,4.00
2013,03,25,02,36,4.00
2013,03,25,02,37,4.00
2013,03,25,02,38,4.00
2013,03,25,02,39,4.00
2013,03,25,02,40,4.00
2013,03,25,02,41,4.00
2013,03,25,02,42,4.00
2013,03,25,02,43,4.00
2013,03,25,02,44,3.90
2013,03,25,02,45,3.90
2013,03,25,02,46,3.90
2013,03,25,02,47,3.90
2013,03,25,02,48,3.90
2013,03,25,02,49,3.90
2013,03,25,02,50,3.90
2013,03,25,02,51,3.90
2013,03,25,02,52,3.80
2013,03,25,02,53,3.80
2013,03,25,02,54,3.80
2013,03,25,02,55,3.80
2013,03,25,02,56,3.80
2013,03,25,02,57,3.80
2013,03,25,02,58,3.80
2013,03,25,02,59,3.80
2013,03,25,03,00,3.80
2013,03,25,03,01,3.80
2013,03,25,03,02,3.80
2013,03,25,03,03,3.80
2013,03,25,03,04,3.90
2013,03,25,03,05,3.90
2013,03,25,03,06,3.90
2013,03,25,03,07,3.90
2013,03,25,03,08,3.90
2013,03,25,03,09,3.90
2013,03,25,03,10,3.90
2013,03,25,03,11,3.90
2013,03,25,03,12,4.00
2013,03,25,03,13,4.00
2013,03,25,03,14,4.00
2013,03,25,03,15,4.00
2013,03,25,03,16,4.00
2013,03,25,03,17,4.00
2013,03,25,03,18,4.00
2013,03,25,03,19,4.00
2013,03,25,03,20,4.00
2013,03,25,03,21,4.00
2013,03,25,03,22,4.00
2013,03,25,03,23,4.00
2013,03,25,03,24,4.00
2013,03,25,03,25,4.00
2013,03,25,03,26,4.00
2013,03,25,03,27,4.00
2013,03,25,03,28,4.00
2013,03,25,03,29,4.00
2013,03,25,03,30,4.10
2013,03,25,03,31,4.10
2013,03,25,03,32,4.10
2013,03,25,03,33,4.10
2013,03,25,03,34,4.10
2013,03,25,03,35,4.10
2013,03,25,03,36,4.10
2013,03,25,03,37,4.10
2013,03,25,03,38,4.10
2013,03,25,03,39,4.10
2013,03,25,03,40,4.20
2013,03,25,03,41,4.20
2013,03,25,03,42,4.20
2013,03,25,03,43,4.20
2013,03,25,03,44,4.20
2013,03,25,03,45,4.20
2013,03,25,03,46,4.20
2013,03,25,03,47,4.20
2013,03,25,03,48,4.20
2013,03,25,03,49,4.20
2013,03,25,03,50,4.20
2013,03,25,03,51,4.20
2013,03,25,03,52,4.20
2013,03,25,03,53,4.20
2013,03,25,03,54,4.20
2013,03,25,03,55,4.20
2013,03,25,03,56,4.20
2013,03,25,03,57,4.20
2013,03,25,03,58,4.20
2013,03,25,03,59,4.20
2013,03,25,04,00,4.30
2013,03,25,04,01,4.40
2013,03,25,04,02,4.50
2013,03,25,04,03,4.60
2013,03,25,04,04,4.80
2013,03,25,04,05,4.90
2013,03,25,04,06,5.10
2013,03,25,04,07,5.20
2013,03,25,04,08,5.30
2013,03,25,04,09,5.30
2013,03,25,04,10,5.40
2013,03,25,04,11,5.50
2013,03,25,04,12,5.60
2013,03,25,04,13,5.70
2013,03,25,04,14,5.70
2013,03,25,04,15,5.80
2013,03,25,04,16,5.80
2013,03,25,04,17,5.90
2013,03,25,04,18,5.90
2013,03,25,04,19,6.00
2013,03,25,04,20,6.00
2013,03,25,04,21,6.00
2013,03,25,04,22,6.00
2013,03,25,04,23,6.00
2013,03,25,04,24,6.00
2013,03,25,04,25,6.00
2013,03,25,04,26,6.10
2013,03,25,04,27,6.10
2013,03,25,04,28,6.10
2013,03,25,04,29,6.10
2013,03,25,04,30,6.00
2013,03,25,04,31,6.00
2013,03,25,04,32,6.00
2013,03,25,04,33,6.00
2013,03,25,04,34,6.00
2013,03,25,04,35,5.90
2013,03,25,04,36,5.90
2013,03,25,04,37,5.90
2013,03,25,04,38,5.80
2013,03,25,04,39,5.80
2013,03,25,04,40,5.70
2013,03,25,04,41,5.70
2013,03,25,04,42,5.70
2013,03,25,04,43,5.60
2013,03,25,04,44,5.60
2013,03,25,04,45,5.50
2013,03,25,04,46,5.40
2013,03,25,04,47,5.40
2013,03,25,04,48,5.30
2013,03,25,04,49,5.30
2013,03,25,04,50,5.20
2013,03,25,04,51,5.20
2013,03,25,04,52,5.10
2013,03,25,04,53,5.10
2013,03,25,04,54,5.00
2013,03,25,04,55,4.90
2013,03,25,04,56,4.80
2013,03,25,04,57,4.80
2013,03,25,04,58,4.70
2013,03,25,04,59,4.60
2013,03,25,05,00,4.60
2013,03,25,05,01,4.50
2013,03,25,05,02,4.50
2013,03,25,05,03,4.40
2013,03,25,05,04,4.30
2013,03,25,05,05,4.20
2013,03,25,05,06,4.20
2013,03,25,05,07,4.20
2013,03,25,05,08,4.10
2013,03,25,05,09,4.10
2013,03,25,05,10,4.00
2013,03,25,05,11,4.00
2013,03,25,05,12,4.00
2013,03,25,05,13,4.00
2013,03,25,05,14,4.00
2013,03,25,05,15,3.90
2013,03,25,05,16,3.90
2013,03,25,05,17,3.90
2013,03,25,05,18,3.90
2013,03,25,05,19,3.90
2013,03,25,05,20,3.90
2013,03,25,05,21,3.90
2013,03,25,05,22,3.90
2013,03,25,05,23,3.90
2013,03,25,05,24,3.90
2013,03,25,05,25,3.90
2013,03,25,05,26,3.80
2013,03,25,05,27,3.80
2013,03,25,05,28,3.80
2013,03,25,05,29,3.80
2013,03,25,05,30,3.70
2013,03,25,05,31,3.70
2013,03,25,05,32,3.60
2013,03,25,05,33,3.60
2013,03,25,05,34,3.60
2013,03,25,05,35,3.70
2013,03,25,05,36,3.80
2013,03,25,05,37,3.80
2013,03,25,05,38,3.80
2013,03,25,05,39,3.80
2013,03,25,05,40,3.80
2013,03,25,05,41,3.80
2013,03,25,05,42,3.80
2013,03,25,05,43,3.70
2013,03,25,05,44,3.70
2013,03,25,05,45,3.60
2013,03,25,05,46,3.60
2013,03,25,05,47,3.60
2013,03,25,05,48,3.50
2013,03,25,05,49,3.50
2013,03,25,05,50,3.40
2013,03,25,05,51,3.30
2013,03,25,05,52,3.30
2013,03,25,05,53,3.20
2013,03,25,05,54,3.20
2013,03,25,05,55,3.10
2013,03,25,05,56,3.10
2013,03,25,05,57,3.10
2013,03,25,05,58,3.00
2013,03,25,05,59,2.90
2013,03,25,06,00,2.90
2013,03,25,06,01,2.90
2013,03,25,06,02,2.90
2013,03,25,06,03,2.80
2013,03,25,06,04,2.80
2013,03,25,06,05,2.80
2013,03,25,06,06,2.70
2013,03,25,06,07,2.70
2013,03,25,06,08,2.70
2013,03,25,06,09,2.70
2013,03,25,06,10,2.70
2013,03,25,06,11,2.60
2013,03,25,06,12,2.60
2013,03,25,06,13,2.60
2013,03,25,06,14,2.60
2013,03,25,06,15,2.60
2013,03,25,06,16,2.60
2013,03,25,06,17,2.60
2013,03,25,06,18,2.50
2013,03,25,06,19,2.50
2013,03,25,06,20,2.50
2013,03,25,06,21,2.50
2013,03,25,06,22,2.50
2013,03,25,06,23,2.50
2013,03,25,06,24,2.50
2013,03,25,06,25,2.50
2013,03,25,06,26,2.50
2013,03,25,06,27,2.50
2013,03,25,06,28,2.50
2013,03,25,06,29,2.40
2013,03,25,06,30,2.40
2013,03,25,06,31,2.40
2013,03,25,06,32,2.40
2013,03,25,06,33,2.30
2013,03,25,06,34,2.30
2013,03,25,06,35,2.30
2013,03,25,06,36,2.30
2013,03,25,06,37,2.30
2013,03,25,06,38,2.30
2013,03,25,06,39,2.30
2013,03,25,06,40,2.30
2013,03,25,06,41,2.30
2013,03,25,06,42,2.30
2013,03,25,06,43,2.30
2013,03,25,06,44,2.20
2013,03,25,06,45,2.20
2013,03,25,06,46,2.20
2013,03,25,06,47,2.20
2013,03,25,06,48,2.20
2013,03,25,06,49,2.10
2013,03,25,06,50,2.10
2013,03,25,06,51,2.10
2013,03,25,06,52,2.10
2013,03,25,06,53,2.10
2013,03,25,06,54,2.00
2013,03,25,06,55,2.00
2013,03,25,06,56,2.00
2013,03,25,06,57,2.00
2013,03,25,06,58,2.00
2013,03,25,06,59,1.90
2013,03,25,07,00,1.90
2013,03,25,07,01,1.90
2013,03,25,07,02,1.90
2013,03,25,07,03,1.90
2013,03,25,07,04,1.90
2013,03,25,07,05,1.90
2013,03,25,07,06,1.80
2013,03,25,07,07,1.80
2013,03,25,07,08,1.80
2013,03,25,07,09,1.80
2013,03,25,07,10,1.80
2013,03,25,07,11,1.80
2013,03,25,07,12,1.80
2013,03,25,07,13,1.80
2013,03,25,07,14,1.80
2013,03,25,07,15,1.80
2013,03,25,07,16,1.80
2013,03,25,07,17,1.90
2013,03,25,07,18,1.90
2013,03,25,07,19,2.00
2013,03,25,07,20,2.00
2013,03,25,07,21,2.00
2013,03,25,07,22,2.10
2013,03,25,07,23,2.10
2013,03,25,07,24,2.10
2013,03,25,07,25,2.10
2013,03,25,07,26,2.10
2013,03,25,07,27,2.20
2013,03,25,07,28,2.20
2013,03,25,07,29,2.20
2013,03,25,07,30,2.20
2013,03,25,07,31,2.20
2013,03,25,07,32,2.20
2013,03,25,07,33,2.20
2013,03,25,07,34,2.20
2013,03,25,07,35,2.20
2013,03,25,07,36,2.20
2013,03,25,07,37,2.20
2013,03,25,07,38,2.20
2013,03,25,07,39,2.20
2013,03,25,07,40,2.20
2013,03,25,07,41,2.20
2013,03,25,07,42,2.20
2013,03,25,07,43,2.20
2013,03,25,07,44,2.20
2013,03,25,07,45,2.20
2013,03,25,07,46,2.20
2013,03,25,07,47,2.20
2013,03,25,07,48,2.20
2013,03,25,07,49,2.20
2013,03,25,07,50,2.20
2013,03,25,07,51,2.20
2013,03,25,07,52,2.30
2013,03,25,07,53,2.30
2013,03,25,07,54,2.30
2013,03,25,07,55,2.40
2013,03,25,07,56,2.40
2013,03,25,07,57,2.40
2013,03,25,07,58,2.50
2013,03,25,07,59,2.50
2013,03,25,08,00,2.50
2013,03,25,08,01,2.50
2013,03,25,08,02,2.60
2013,03,25,08,03,2.60
2013,03,25,08,04,2.70
2013,03,25,08,05,2.70
2013,03,25,08,06,2.70
2013,03,25,08,07,2.70
2013,03,25,08,08,2.80
2013,03,25,08,09,2.90
2013,03,25,08,10,2.90
2013,03,25,08,11,2.90
2013,03,25,08,12,3.00
2013,03,25,08,13,3.10
2013,03,25,08,14,3.10
2013,03,25,08,15,3.20
2013,03,25,08,16,3.20
2013,03,25,08,17,3.30
2013,03,25,08,18,3.30
2013,03,25,08,19,3.30
2013,03,25,08,20,3.40
2013,03,25,08,21,3.40
2013,03,25,08,22,3.50
2013,03,25,08,23,3.50
2013,03,25,08,24,3.60
2013,03,25,08,25,3.70
2013,03,25,08,26,3.80
2013,03,25,08,27,3.90
2013,03,25,08,28,4.00
2013,03,25,08,29,4.10
2013,03,25,08,30,4.20
2013,03,25,08,31,4.30
2013,03,25,08,32,4.30
2013,03,25,08,33,4.40
2013,03,25,08,34,4.50
2013,03,25,08,35,4.60
2013,03,25,08,36,4.70
2013,03,25,08,37,4.80
2013,03,25,08,38,4.90
2013,03,25,08,39,5.00
2013,03,25,08,40,5.10
2013,03,25,08,41,5.20
2013,03,25,08,42,5.40
2013,03,25,08,43,5.50
2013,03,25,08,44,5.60
2013,03,25,08,45,5.70
2013,03,25,08,46,5.90
2013,03,25,08,47,6.00
2013,03,25,08,48,6.10
2013,03,25,08,49,6.30
2013,03,25,08,50,6.40
2013,03,25,08,51,6.50
2013,03,25,08,52,6.60
2013,03,25,08,53,6.70
2013,03,25,08,54,6.70
2013,03,25,08,55,6.80
2013,03,25,08,56,6.80
2013,03,25,08,57,6.90
2013,03,25,08,58,6.90
2013,03,25,08,59,7.00
2013,03,25,09,00,7.00
2013,03,25,09,01,7.10
2013,03,25,09,02,7.10
2013,03,25,09,03,7.20
2013,03,25,09,04,7.20
2013,03,25,09,05,7.20
2013,03,25,09,06,7.30
2013,03,25,09,07,7.30
2013,03,25,09,08,7.30
2013,03,25,09,09,7.30
2013,03,25,09,10,7.30
2013,03,25,09,11,7.30
2013,03,25,09,12,7.30
2013,03,25,09,13,7.40
2013,03,25,09,14,7.50
2013,03,25,09,15,7.50
2013,03,25,09,16,7.60
2013,03,25,09,17,7.70
2013,03,25,09,18,7.70
2013,03,25,09,19,7.80
2013,03,25,09,20,7.80
2013,03,25,09,21,7.80
2013,03,25,09,22,7.90
2013,03,25,09,23,7.90
2013,03,25,09,24,7.90
2013,03,25,09,25,7.90
2013,03,25,09,26,8.00
2013,03,25,09,27,8.10
2013,03,25,09,28,8.10
2013,03,25,09,29,8.10
2013,03,25,09,30,8.20
2013,03,25,09,31,8.20
2013,03,25,09,32,8.20
2013,03,25,09,33,8.20
2013,03,25,09,34,8.20
2013,03,25,09,35,8.30
2013,03,25,09,36,8.40
2013,03,25,09,37,8.40
2013,03,25,09,38,8.50
2013,03,25,09,39,8.50
2013,03,25,09,40,8.50
2013,03,25,09,41,8.60
2013,03,25,09,42,8.60
2013,03,25,09,43,8.70
2013,03,25,09,44,8.70
2013,03,25,09,45,8.70
2013,03,25,09,46,8.70
2013,03,25,09,47,8.70
2013,03,25,09,48,8.90
2013,03,25,09,49,8.90
2013,03,25,09,50,9.00
2013,03,25,09,51,9.10
2013,03,25,09,52,9.20
2013,03,25,09,53,9.20
2013,03,25,09,54,9.20
2013,03,25,09,55,9.20
2013,03,25,09,56,9.20
2013,03,25,09,57,9.20
2013,03,25,09,58,9.30
2013,03,25,09,59,9.30
2013,03,25,10,00,9.40
2013,03,25,10,01,9.50
2013,03,25,10,02,9.50
2013,03,25,10,03,9.50
2013,03,25,10,04,9.50
2013,03,25,10,05,9.50
2013,03,25,10,06,9.60
2013,03,25,10,07,9.60
2013,03,25,10,08,9.60
2013,03,25,10,09,9.50
2013,03,25,10,10,9.50
2013,03,25,10,11,9.40
2013,03,25,10,12,9.40
2013,03,25,10,13,9.50
2013,03,25,10,14,9.50
2013,03,25,10,15,9.60
2013,03,25,10,16,9.60
2013,03,25,10,17,9.50
2013,03,25,10,18,9.50
2013,03,25,10,19,9.50
2013,03,25,10,20,9.50
2013,03,25,10,21,9.60
2013,03,25,10,22,9.70
2013,03,25,10,23,9.70
2013,03,25,10,24,9.70
2013,03,25,10,25,9.70
2013,03,25,10,26,9.70
2013,03,25,10,27,9.70
2013,03,25,10,28,9.70
2013,03,25,10,29,9.70
2013,03,25,10,30,9.60
2013,03,25,10,31,9.70
2013,03,25,10,32,9.60
2013,03,25,10,33,9.60
2013,03,25,10,34,9.60
2013,03,25,10,35,9.70
2013,03,25,10,36,9.80
2013,03,25,10,37,10.00
2013,03,25,10,38,10.10
2013,03,25,10,39,10.10
2013,03,25,10,40,10.20
2013,03,25,10,41,10.20
2013,03,25,10,42,10.20
2013,03,25,10,43,10.20
2013,03,25,10,44,10.20
2013,03,25,10,45,10.10
2013,03,25,10,46,10.10
2013,03,25,10,47,10.10
2013,03,25,10,48,10.10
2013,03,25,10,49,10.10
2013,03,25,10,50,10.10
2013,03,25,10,51,10.10
2013,03,25,10,52,10.10
2013,03,25,10,53,10.10
2013,03,25,10,54,10.20
2013,03,25,10,55,10.20
2013,03,25,10,56,10.20
2013,03,25,10,57,10.30
2013,03,25,10,58,10.40
2013,03,25,10,59,10.60
2013,03,25,11,00,10.60
2013,03,25,11,01,10.50
2013,03,25,11,02,10.40
2013,03,25,11,03,10.40
2013,03,25,11,04,10.40
2013,03,25,11,05,10.40
2013,03,25,11,06,10.50
2013,03,25,11,07,10.60
2013,03,25,11,08,10.60
2013,03,25,11,09,10.60
2013,03,25,11,10,10.60
2013,03,25,11,11,10.70
2013,03,25,11,12,10.70
2013,03,25,11,13,10.70
2013,03,25,11,14,10.70
2013,03,25,11,15,10.70
2013,03,25,11,16,10.70
2013,03,25,11,17,10.60
2013,03,25,11,18,10.60
2013,03,25,11,19,10.60
2013,03,25,11,20,10.60
2013,03,25,11,21,10.60
2013,03,25,11,22,10.70
2013,03,25,11,23,10.80
2013,03,25,11,24,10.80
2013,03,25,11,25,10.90
2013,03,25,11,26,10.80
2013,03,25,11,27,10.90
2013,03,25,11,28,10.80
2013,03,25,11,29,10.80
2013,03,25,11,30,10.90
2013,03,25,11,31,11.00
2013,03,25,11,32,11.10
2013,03,25,11,33,11.30
2013,03,25,11,34,11.30
2013,03,25,11,35,11.20
2013,03,25,11,36,11.20
2013,03,25,11,37,11.30
2013,03,25,11,38,11.30
2013,03,25,11,39,11.30
2013,03,25,11,40,11.40
2013,03,25,11,41,11.60
2013,03,25,11,42,11.70
2013,03,25,11,43,11.80
2013,03,25,11,44,11.80
2013,03,25,11,45,11.80
2013,03,25,11,46,12.00
2013,03,25,11,47,12.00
2013,03,25,11,48,12.10
2013,03,25,11,49,12.10
2013,03,25,11,50,12.20
2013,03,25,11,51,12.20
2013,03,25,11,52,12.10
2013,03,25,11,53,12.10
2013,03,25,11,54,12.00
2013,03,25,11,55,12.00
2013,03,25,11,56,12.00
2013,03,25,11,57,11.90
2013,03,25,11,58,11.90
2013,03,25,11,59,11.90
2013,03,25,12,00,11.90
2013,03,25,12,01,11.90
2013,03,25,12,02,11.90
2013,03,25,12,03,12.00
2013,03,25,12,04,12.10
2013,03,25,12,05,12.20
2013,03,25,12,06,12.20
2013,03,25,12,07,12.30
2013,03,25,12,08,12.40
2013,03,25,12,09,12.40
2013,03,25,12,10,12.50
2013,03,25,12,11,12.50
2013,03,25,12,12,12.50
2013,03,25,12,13,12.50
2013,03,25,12,14,12.50
2013,03,25,12,15,12.40
2013,03,25,12,16,12.40
2013,03,25,12,17,12.30
2013,03,25,12,18,12.30
2013,03,25,12,19,12.30
2013,03,25,12,20,12.30
2013,03,25,12,21,12.30
2013,03,25,12,22,12.30
2013,03,25,12,23,12.30
2013,03,25,12,24,12.30
2013,03,25,12,25,12.30
2013,03,25,12,26,12.30
2013,03,25,12,27,12.30
2013,03,25,12,28,12.40
2013,03,25,12,29,12.30
2013,03,25,12,30,12.30
2013,03,25,12,31,12.20
2013,03,25,12,32,12.10
2013,03,25,12,33,12.10
2013,03,25,12,34,12.10
2013,03,25,12,35,12.20
2013,03,25,12,36,12.30
2013,03,25,12,37,12.30
2013,03,25,12,38,12.30
2013,03,25,12,39,12.30
2013,03,25,12,40,12.40
2013,03,25,12,41,12.50
2013,03,25,12,42,12.50
2013,03,25,12,43,12.50
2013,03,25,12,44,12.50
2013,03,25,12,45,12.50
2013,03,25,12,46,12.50
2013,03,25,12,47,12.40
2013,03,25,12,48,12.30
2013,03,25,12,49,12.30
2013,03,25,12,50,12.30
2013,03,25,12,51,12.30
2013,03,25,12,52,12.40
2013,03,25,12,53,12.50
2013,03,25,12,54,12.60
2013,03,25,12,55,12.70
2013,03,25,12,56,12.70
2013,03,25,12,57,12.70
2013,03,25,12,58,12.70
2013,03,25,12,59,12.70
2013,03,25,13,00,12.60
2013,03,25,13,01,12.60
2013,03,25,13,02,12.60
2013,03,25,13,03,12.60
2013,03,25,13,04,12.60
2013,03,25,13,05,12.60
2013,03,25,13,06,12.80
2013,03,25,13,07,12.90
2013,03,25,13,08,12.90
2013,03,25,13,09,12.90
2013,03,25,13,10,12.90
2013,03,25,13,11,12.80
2013,03,25,13,12,12.70
2013,03,25,13,13,12.70
2013,03,25,13,14,12.60
2013,03,25,13,15,12.30
2013,03,25,13,16,12.20
2013,03,25,13,17,12.20
2013,03,25,13,18,12.30
2013,03,25,13,19,12.40
2013,03,25,13,20,12.50
2013,03,25,13,21,12.50
2013,03,25,13,22,12.50
2013,03,25,13,23,12.60
2013,03,25,13,24,12.70
2013,03,25,13,25,12.70
2013,03,25,13,26,12.80
2013,03,25,13,27,12.80
2013,03,25,13,28,13.00
2013,03,25,13,29,13.10
2013,03,25,13,30,13.10
2013,03,25,13,31,13.00
2013,03,25,13,32,13.10
2013,03,25,13,33,13.10
2013,03,25,13,34,13.10
2013,03,25,13,35,13.00
2013,03,25,13,36,12.90
2013,03,25,13,37,12.90
2013,03,25,13,38,12.90
2013,03,25,13,39,12.90
2013,03,25,13,40,12.90
2013,03,25,13,41,12.90
2013,03,25,13,42,12.90
2013,03,25,13,43,12.90
2013,03,25,13,44,12.90
2013,03,25,13,45,13.00
2013,03,25,13,46,13.00
2013,03,25,13,47,13.20
2013,03,25,13,48,13.30
2013,03,25,13,49,13.30
2013,03,25,13,50,13.30
2013,03,25,13,51,13.20
2013,03,25,13,52,13.20
2013,03,25,13,53,13.20
2013,03,25,13,54,13.30
2013,03,25,13,55,13.30
2013,03,25,13,56,13.30
2013,03,25,13,57,13.30
2013,03,25,13,58,13.30
2013,03,25,13,59,13.20
2013,03,25,14,00,13.10
2013,03,25,14,01,13.00
2013,03,25,14,02,13.00
2013,03,25,14,03,13.00
2013,03,25,14,04,13.00
2013,03,25,14,05,13.10
2013,03,25,14,06,13.10
2013,03,25,14,07,13.10
2013,03,25,14,08,13.10
2013,03,25,14,09,13.10
2013,03,25,14,10,13.10
2013,03,25,14,11,13.20
2013,03,25,14,12,13.20
2013,03,25,14,13,13.40
2013,03,25,14,14,13.40
2013,03,25,14,15,13.30
2013,03,25,14,16,13.40
2013,03,25,14,17,13.50
2013,03,25,14,18,13.50
2013,03,25,14,19,13.40
2013,03,25,14,20,13.30
2013,03,25,14,21,13.30
2013,03,25,14,22,13.30
2013,03,25,14,23,13.40
2013,03,25,14,24,13.50
2013,03,25,14,25,13.60
2013,03,25,14,26,13.70
2013,03,25,14,27,13.70
2013,03,25,14,28,13.70
2013,03,25,14,29,13.70
2013,03,25,14,30,13.70
2013,03,25,14,31,13.70
2013,03,25,14,32,13.70
2013,03,25,14,33,13.80
2013,03,25,14,34,13.90
2013,03,25,14,35,13.90
2013,03,25,14,36,14.00
2013,03,25,14,37,14.00
2013,03,25,14,38,14.10
2013,03,25,14,39,14.20
2013,03,25,14,40,14.20
2013,03,25,14,41,14.20
2013,03,25,14,42,14.20
2013,03,25,14,43,14.40
2013,03,25,14,44,14.40
2013,03,25,14,45,14.40
2013,03,25,14,46,14.50
2013,03,25,14,47,14.50
2013,03,25,14,48,14.40
2013,03,25,14,49,14.40
2013,03,25,14,50,14.40
2013,03,25,14,51,14.30
2013,03,25,14,52,14.30
2013,03,25,14,53,14.40
2013,03,25,14,54,14.40
2013,03,25,14,55,14.40
2013,03,25,14,56,14.30
2013,03,25,14,57,14.10
2013,03,25,14,58,13.90
2013,03,25,14,59,13.90
2013,03,25,15,00,13.80
2013,03,25,15,01,13.80
2013,03,25,15,02,13.90
2013,03,25,15,03,14.00
2013,03,25,15,04,14.10
2013,03,25,15,05,14.20
2013,03,25,15,06,14.30
2013,03,25,15,07,14.50
2013,03,25,15,08,14.50
2013,03,25,15,09,14.50
2013,03,25,15,10,14.50
2013,03,25,15,11,14.30
2013,03,25,15,12,14.10
2013,03,25,15,13,13.90
2013,03,25,15,14,13.90
2013,03,25,15,15,13.90
2013,03,25,15,16,14.00
2013,03,25,15,17,14.10
2013,03,25,15,18,14.10
2013,03,25,15,19,14.10
2013,03,25,15,20,14.10
2013,03,25,15,21,14.20
2013,03,25,15,22,14.30
2013,03,25,15,23,14.40
2013,03,25,15,24,14.40
2013,03,25,15,25,14.50
2013,03,25,15,26,14.40
2013,03,25,15,27,14.40
2013,03,25,15,28,14.30
2013,03,25,15,29,14.30
2013,03,25,15,30,14.30
2013,03,25,15,31,14.30
2013,03,25,15,32,14.30
2013,03,25,15,33,14.30
2013,03,25,15,34,14.40
2013,03,25,15,35,14.40
2013,03,25,15,36,14.20
2013,03,25,15,37,14.20
2013,03,25,15,38,14.20
2013,03,25,15,39,14.30
2013,03,25,15,40,14.30
2013,03,25,15,41,14.20
2013,03,25,15,42,14.20
2013,03,25,15,43,14.20
2013,03,25,15,44,14.30
2013,03,25,15,45,14.30
2013,03,25,15,46,14.20
2013,03,25,15,47,14.20
2013,03,25,15,48,14.20
2013,03,25,15,49,14.20
2013,03,25,15,50,14.20
2013,03,25,15,51,14.20
2013,03,25,15,52,14.40
2013,03,25,15,53,14.40
2013,03,25,15,54,14.40
2013,03,25,15,55,14.30
2013,03,25,15,56,14.20
2013,03,25,15,57,14.20
2013,03,25,15,58,14.10
2013,03,25,15,59,14.00
2013,03,25,16,00,13.80
2013,03,25,16,01,13.80
2013,03,25,16,02,13.90
2013,03,25,16,03,13.90
2013,03,25,16,04,14.00
2013,03,25,16,05,14.10
2013,03,25,16,06,14.10
2013,03,25,16,07,14.20
2013,03,25,16,08,14.20
2013,03,25,16,09,14.30
2013,03,25,16,10,14.30
2013,03,25,16,11,14.20
2013,03,25,16,12,14.20
2013,03,25,16,13,14.20
2013,03,25,16,14,14.20
2013,03,25,16,15,14.20
2013,03,25,16,16,14.20
2013,03,25,16,17,14.10
2013,03,25,16,18,14.10
2013,03,25,16,19,14.20
2013,03,25,16,20,14.20
2013,03,25,16,21,14.20
2013,03,25,16,22,14.20
2013,03,25,16,23,14.20
2013,03,25,16,24,14.20
2013,03,25,16,25,14.20
2013,03,25,16,26,14.20
2013,03,25,16,27,14.10
2013,03,25,16,28,14.10
2013,03,25,16,29,14.10
2013,03,25,16,30,14.10
2013,03,25,16,31,14.10
2013,03,25,16,32,14.20
2013,03,25,16,33,14.20
2013,03,25,16,34,14.20
2013,03,25,16,35,14.10
2013,03,25,16,36,14.10
2013,03,25,16,37,14.10
2013,03,25,16,38,14.10
2013,03,25,16,39,14.20
2013,03,25,16,40,14.20
2013,03,25,16,41,14.20
2013,03,25,16,42,14.30
2013,03,25,16,43,14.40
2013,03,25,16,44,14.50
2013,03,25,16,45,14.60
2013,03,25,16,46,14.60
2013,03,25,16,47,14.50
2013,03,25,16,48,14.50
2013,03,25,16,49,14.40
2013,03,25,16,50,14.40
2013,03,25,16,51,14.40
2013,03,25,16,52,14.50
2013,03,25,16,53,14.50
2013,03,25,16,54,14.50
2013,03,25,16,55,14.50
2013,03,25,16,56,14.50
2013,03,25,16,57,14.50
2013,03,25,16,58,14.50
2013,03,25,16,59,14.50
2013,03,25,17,00,14.40
2013,03,25,17,01,14.50
2013,03,25,17,02,14.50
2013,03,25,17,03,14.40
2013,03,25,17,04,14.40
2013,03,25,17,05,14.40
2013,03,25,17,06,14.40
2013,03,25,17,07,14.40
2013,03,25,17,08,14.20
2013,03,25,17,09,14.10
2013,03,25,17,10,14.00
2013,03,25,17,11,14.00
2013,03,25,17,12,13.90
2013,03,25,17,13,13.80
2013,03,25,17,14,13.80
2013,03,25,17,15,13.80
2013,03,25,17,16,13.90
2013,03,25,17,17,13.90
2013,03,25,17,18,13.80
2013,03,25,17,19,13.80
2013,03,25,17,20,13.80
2013,03,25,17,21,13.80
2013,03,25,17,22,13.80
2013,03,25,17,23,13.90
2013,03,25,17,24,13.90
2013,03,25,17,25,14.00
2013,03,25,17,26,13.90
2013,03,25,17,27,13.90
2013,03,25,17,28,13.80
2013,03,25,17,29,13.80
2013,03,25,17,30,13.80
2013,03,25,17,31,13.80
2013,03,25,17,32,13.80
2013,03,25,17,33,13.70
2013,03,25,17,34,13.80
2013,03,25,17,35,13.90
2013,03,25,17,36,13.90
2013,03,25,17,37,13.90
2013,03,25,17,38,14.00
2013,03,25,17,39,14.00
2013,03,25,17,40,14.00
2013,03,25,17,41,14.00
2013,03,25,17,42,14.00
2013,03,25,17,43,13.90
2013,03,25,17,44,13.90
2013,03,25,17,45,13.90
2013,03,25,17,46,13.90
2013,03,25,17,47,13.80